{"data":{"norad_id":61554,"intl_designator":"2024-185C","name":"QIANFAN-21","alt_names":[],"object_type":"PAYLOAD","status":"ACTIVE","operator":null,"country":"PRC","launch_date":"2024-10-15","launch_site_code":"TAISC","launch_vehicle":null,"mission":null,"orbit_class":"UNKNOWN","rcs_meters":null,"size_class":null,"mass_kg":null,"dimensions":null,"purposes":[],"wikipedia_slug":null,"has_3d_model":false,"image_url":null,"decayed_at":null,"tle_current":{"epoch":"2026-05-25T04:52:31.875744Z","epoch_age_seconds":60755,"freshness":"FRESH","line1":"1 61554U 24185C   26145.20314671  .00000521  00000+0  22577-3 0  9996","line2":"2 61554  88.9768  57.8216 0010005 177.6930 182.4309 14.22826945 93212","mean_motion":14.22826945,"eccentricity":0.0010005,"inclination_deg":88.9768,"raan_deg":57.8216,"arg_perigee_deg":177.693,"mean_anomaly_deg":182.4309,"bstar":0.00022577,"rev_number":9321,"period_min":101.20696723241,"perigee_km":808.61058061674,"apogee_km":823.00566480729,"semimajor_km":7193.945122712,"source":"CELESTRAK","updated_at":"2026-05-25T13:38:02.412772Z"}}}